Probability
0 0 0 0 0 0 0 0 0 0 0 0 0 0 0 0 0 0 0 0 0 0 0 0 0 0 0 0 0 0 0 0 0 0 0 0 0 0 0 0 0 0 0 0
0 0 0 0 0 0 0 0 0 0 0 0 0 0 0 0 0 0 0 0 0 0 0 0 0 0 0 0 0 0 0 0 0 0 0 0 0 0 0 0 0 0 0 0
0 0 0 0 0 0 0 0 0 0 0 0 0 0 0 0 0 0 0 0 0 0 0 0 0 0 0 0 0 0 0 0 0 0 0 0 0 0 0 0 0 0 0 0
0 0 0 0 0 0 0 0 0 0 0 0 0 0 0 0 0 0 0 0 0 0 0 0 0 0 0 0 0 0 0 0 0 0 0 0 0 0 0 0 0 0 0 0
0 0 0 0 0 0 0 0 0 0 0 0 0 0 0 0 0 0 0 0 0 0 0 0 0 0 0 0 0 0 0 0 0 0 0 0 0 0 0 0 0 0 0 0
0 0 0 0 0 0 0 0 0 0 0 0 0 0 0 0 0 0 0 0 0 0 0 0 0 0 0 0 0 0 0 0 0 0 0 0 0 0 0 0 0 0 0 0
0 0 0 0 0 0 0 0 0 0 0 0 0 0 0 0 0 0 0 0 0 0 0 0 0 0 0 0 0 0 0 0 0 0 0 0 0 0 0 0 0 0 0 0
0 0 0 0 0 0 0 0 0 0 0 0 0 0 0 0 0 0 0 0 0 0 0 0 0 0 0 0 0 0 0 0 0 0 0 0 0 0 0 0 0 0 0 0
0 0 0 0 0 0 0 0 0 0 0 0 0 0 0 0 0 0 0 0 0 0 0 0 0 0 0 0 0 0 0 0 0 0 0 0 0 0 0 0 0 0 0 0
0 0 0 0 0 0 0 0 0 0 0 0 0 0 0 0 0 0 0 0 0 0 0 0 0 0 0 0 0 0 0 0 0 0 0 0 0 0 0 0 0 0 0 0
0 0 0 0 0 0 0 0 0 0 0 0 0 0 0 0 0 0 0 0 0 0 0 0 0 0 0 0 0 0 0 0 0 0 0 0 0 0 0 0 0 0 0 0
0 0 0 0 0 0 0 0 0 0 0 0 0 0 0 0 0 0 0 0 0 0 0 0 0 0 0 0 0 0 0 0 0 0 0 0 0 0 0 0 0 0 0 0
0 0 0 0 0 0 0 0 0 0 0 0 0 0 0 0 0 0 0 0 0 0 0 0 0 0 0 0 0 0 0 0 0 0 0 0 0 0 0 0 0 0 0 0
0 0 0 0 0 0 0 0 0 0 0 0 0 0 0 0 0 0 0 0 0 0 0 0 0 0 0 0 0 0 0 0 0 0 0 0 0 0 0 0 0 0 0 0
0 0 0 0 0 0 0 0 0 0 0 0 0 0 0 0 0 0 0 0 0 0 0 0 0 0 0 0 0 0 0 0 0 0 0 0 0 0 0 0 0 0 0 0
0 0 0 0 0 0 0 0 0 0 0 0 0 0 0 0 0 0 0 0 0 0 0 0 0 0 0 0 0 0 0 0 0 0 0 0 0 0 0 0 0 0 0 0
0 0 0 0 0 0 0 0 0 0 0 0 0 0 0 0 0 0 0 0 0 0 0 0 0 0 0 0 0 0 0 0 0 0 0 0 0 0 0 0 0 0 0 0
0 0 0 0 0 0 0 0 0 0 0 0 0 0 0 0 0 0 0 0 0 0 0 0 0 0 0 0 0 0 0 0 0 0 0 0 0 0 0 0 0 0 0 0
0 0 0 0 0 0 0 0 0 0 0 0 0 0 0 0 0 0 0 0 0 0 0 0 0 0 0 0 0 0 0 0 0 0 0 0 0 0 0 0 0 0 0 0
0 0 0 0 0 0 0 0 0 0 0 0 0 0 0 0 0 0 0 0 0 0 0 0 0 0 0 0 0 0 0 0 0 0 0 0 0 0 0 0 0 0 0 0
0 0 0 0 0 0 0 0 0 0 0 0 0 0 0 0 0 0 0 0 0 0 0 0 0 0 0 0 0 0 0 0 0 0 0 0 0 0 0 0 0 0 0 0
0 0 0 0 0 0 0 0 0 0 0 0 0 0 0 0 0 0 0 0 0 0 0 0 0 0 0 0 0 0 0 0 0 0 0 0 0 0 0 0 0 0 0 0
0 0 0 0 0 0 0 0 0 0 0 0 0 0 0 0 0 0 0 0 0 0 0 0 0 0 0 0 0 0 0 0 0 0 0 0 0 0 0 0 0 0 0 0
0 0 0 0 0 0 0 0 0 0 0 0 0 0 0 0 0 0 0 0 0 0 0 0 0 0 0 0 0 0 0 0 0 0 0 0 0 0 0 0 0 0 0 0
0 0 0 0 0 0 0 0 0 0 0 0 0 0 0 0 0 0 0 0 0 0 0 0 0 0 0 0 0 0 0 0 0 0 0 0 0 0 0 0 0 0 0 0
0 0 0 0 0 0 0 0 0 0 0 0 0 0 0 0 0 0 0 0 0 0 0 0 0 0 0 0 0 0 0 0 0 0 0 0 0 0 0 0 0 0 0 0
Wind_Speed
2 3 3 7 7 5 3 3 5 5 4 7 10 16 16 8 10 13 12 12 15 19 15 11 13 13 13 14 14 15 13 11 8 4 4 3 3 3 3 3 5 5 5 5
3 3 6 4 4 3 2 3 4 3 2 5 7 13 13 9 11 13 15 16 17 15 11 12 12 14 16 17 17 16 15 13 11 6 5 4 3 3 3 3 3 5 5 5
4 5 2 2 3 3 2 3 3 3 2 3 5 12 9 5 5 7 10 11 12 17 16 14 15 17 17 18 19 17 16 14 12 8 4 3 2 1 2 3 3 4 5 5
3 3 2 3 3 4 4 1 1 1 2 5 2 7 11 5 6 8 12 12 15 15 14 13 15 16 19 20 16 15 15 13 12 10 8 7 6 5 5 4 3 4 5 5
4 4 4 5 5 5 4 2 1 0 1 4 3 4 13 3 7 12 13 14 17 16 14 14 17 19 18 16 15 14 14 14 12 11 11 8 6 5 3 3 4 4 4 5
5 3 4 5 1 1 3 3 3 4 3 5 7 7 12 7 11 10 10 12 14 14 13 13 12 11 11 12 13 13 15 14 13 12 11 10 9 8 6 6 5 4 3 4
4 3 2 2 2 1 3 4 3 4 2 8 4 6 15 11 10 11 11 12 13 11 11 11 11 12 13 15 16 15 16 15 14 13 12 11 10 9 9 8 6 5 4 4
3 6 4 4 6 6 5 6 6 4 5 7 5 9 14 10 9 9 10 9 8 9 9 11 13 14 14 16 17 17 18 15 15 14 12 10 10 7 6 8 6 6 5 5
5 6 1 2 2 4 4 5 6 5 3 5 9 10 14 6 6 6 8 7 10 10 10 11 10 11 13 16 18 19 18 15 15 14 12 10 9 9 8 7 7 5 5 5
5 5 3 1 1 2 3 4 5 4 4 7 9 8 9 8 9 9 9 11 12 10 9 10 10 12 13 14 14 14 16 16 13 13 12 10 9 9 8 7 7 7 7 7
4 4 4 1 7 8 5 4 5 4 4 5 7 12 9 9 9 11 14 13 13 12 12 12 12 11 10 10 12 14 14 13 12 13 11 10 9 9 8 7 8 7 7 7
4 4 5 8 5 4 7 8 8 6 7 6 5 14 9 9 10 10 12 11 10 10 10 9 9 8 10 12 13 15 15 14 14 13 11 11 9 8 8 8 8 7 7 7
5 4 3 7 2 2 4 6 7 4 3 5 7 16 6 6 7 6 8 10 9 9 9 7 7 10 12 14 14 15 15 15 13 12 11 10 10 9 9 8 7 7 7 6
5 5 8 9 8 5 6 5 7 7 6 8 15 22 20 17 11 9 9 10 10 10 9 8 9 10 12 13 14 15 15 14 13 12 12 12 12 11 9 8 7 7 6 6
4 5 7 10 10 6 8 11 10 14 15 16 19 21 28 23 10 9 10 10 10 10 10 10 11 11 11 12 13 14 14 14 14 14 14 14 11 9 8 7 7 7 6 7
4 5 3 7 9 9 10 16 19 18 16 19 23 27 26 18 8 8 10 10 11 11 11 11 11 11 12 15 15 15 15 15 14 15 14 12 10 9 9 8 7 7 7 6
6 6 3 7 5 5 11 15 17 11 11 11 18 22 17 13 12 10 10 9 10 12 11 11 11 13 14 15 15 17 16 14 15 15 13 12 11 11 10 9 8 8 7 6
10 7 4 4 2 13 13 6 8 11 14 14 16 18 14 11 8 8 9 10 12 11 11 11 10 10 11 11 13 12 12 14 15 14 13 13 12 11 10 9 9 8 6 6
6 8 5 3 6 13 10 9 7 8 12 11 17 20 15 5 5 9 9 8 11 11 10 10 9 8 7 10 11 12 13 14 15 16 15 14 13 12 11 11 10 8 6 7
3 3 4 4 6 12 9 4 1 1 10 8 7 11 7 3 2 8 7 4 6 8 8 8 7 6 7 8 9 13 14 16 18 18 16 14 13 13 12 12 10 7 7 7
4 4 6 8 10 14 10 3 3 5 10 5 2 3 2 5 9 9 8 8 9 10 11 9 7 8 9 7 11 14 15 19 17 12 12 13 13 13 12 10 8 7 7 6
11 9 9 7 8 15 7 6 9 10 5 5 6 5 5 8 11 11 11 11 11 11 11 10 8 10 8 8 12 15 18 15 10 12 13 13 13 12 10 10 9 8 7 6
9 10 8 13 13 7 4 9 8 5 7 9 8 9 9 10 12 13 11 11 11 11 11 9 9 11 8 9 13 18 15 10 12 14 14 13 13 12 11 11 10 7 7 6
7 6 6 9 11 11 9 9 11 11 12 12 11 12 11 12 14 14 13 11 10 10 10 9 8 10 11 10 15 17 10 11 14 14 14 13 13 12 11 9 9 8 7 6
8 6 10 17 12 11 11 10 10 10 11 12 13 12 11 12 13 12 11 11 10 10 9 7 8 11 14 10 12 12 10 13 14 13 12 12 12 12 11 10 9 9 8 8
10 13 19 24 15 15 15 11 14 15 14 14 14 13 11 9 10 10 10 9 9 10 10 9 9 11 13 9 10 10 11 14 14 13 12 11 10 10 9 9 8 13 12 14
Wind_Direction
88 85 212 218 204 214 222 233 260 257 195 189 237 262 270 227 217 233 230 225 227 232 228 213 204 193 186 185 185 184 181 179 168 159 166 180 206 214 231 233 228 222 222 229
39 253 227 197 204 226 239 272 272 281 198 211 271 275 269 227 211 221 224 226 229 235 229 215 202 194 192 191 190 188 187 182 180 176 167 170 171 195 215 230 227 221 224 234
222 238 191 193 226 239 266 240 251 274 338 269 307 300 282 254 222 234 230 228 229 229 228 216 205 201 197 197 194 191 189 185 183 172 151 145 138 197 229 224 225 231 234 242
239 223 196 209 237 194 252 207 182 298 344 294 221 290 288 262 260 249 240 233 235 233 228 217 208 204 203 202 193 190 185 183 180 172 170 171 182 199 213 210 218 239 245 245
258 204 201 220 231 192 213 162 148 138 198 302 244 229 279 274 259 254 242 233 235 233 224 220 212 209 205 195 188 186 181 182 179 178 179 179 193 202 209 217 233 242 246 245
243 213 207 212 172 138 121 69 53 51 69 283 226 187 271 234 219 238 240 232 231 230 224 224 216 202 195 184 183 181 182 185 182 182 182 186 193 199 208 220 231 238 239 246
291 261 228 154 145 67 103 87 356 327 321 255 228 211 250 243 223 219 223 229 228 224 219 217 206 197 191 186 187 185 186 188 185 185 189 193 195 196 206 214 222 227 233 237
286 287 227 201 190 184 185 154 175 234 250 285 286 238 253 255 247 234 234 236 236 229 219 216 208 200 194 191 188 188 190 190 187 191 195 195 194 195 206 210 209 217 223 233
215 264 215 182 190 179 187 205 180 161 260 270 268 277 294 267 261 237 232 236 240 234 225 221 210 199 195 192 193 191 191 191 191 193 192 195 195 197 204 207 210 218 227 238
185 255 270 192 47 251 209 156 116 153 231 265 280 269 254 272 254 245 239 237 243 243 239 230 216 207 201 197 193 191 192 194 190 190 193 198 197 200 201 202 213 221 230 239
178 218 275 267 212 205 169 192 186 182 192 201 265 265 232 238 244 236 235 234 236 236 232 228 221 209 197 187 188 192 194 193 192 193 194 193 193 196 198 205 216 222 230 235
175 151 255 252 237 196 187 198 166 183 235 211 233 266 258 249 260 246 246 246 244 242 238 230 216 195 191 194 194 197 197 197 196 192 191 195 191 191 200 211 218 221 229 234
148 139 306 322 303 223 229 219 195 183 183 209 227 266 271 283 283 260 254 263 263 259 253 237 210 202 203 202 200 200 200 200 194 188 191 194 195 197 205 212 216 219 226 235
126 178 199 226 236 203 223 227 201 185 213 238 234 258 273 273 271 275 269 264 264 259 251 237 225 218 213 207 204 203 202 197 191 189 192 199 202 202 205 207 211 217 223 236
143 223 239 254 263 247 242 248 230 217 223 237 254 255 265 271 268 254 259 267 270 264 252 238 231 226 217 211 208 206 202 196 191 192 197 204 201 196 197 203 209 216 226 241
171 220 260 271 260 248 252 254 249 242 237 242 258 266 265 276 279 265 264 265 266 263 256 248 238 229 220 215 211 206 203 197 191 195 201 198 189 191 198 204 209 219 231 241
190 191 221 265 280 310 262 237 237 229 218 215 244 256 271 277 269 262 263 258 255 259 261 256 244 232 227 218 209 207 203 191 193 198 197 192 189 195 201 205 209 221 230 240
173 173 201 260 296 242 245 233 225 238 248 228 246 261 266 261 276 267 254 255 264 265 264 262 253 242 232 218 208 203 191 191 196 198 196 192 190 195 196 202 214 223 226 236
174 170 198 212 245 269 286 271 218 220 271 239 243 261 271 297 319 292 266 237 244 258 264 265 260 249 234 214 199 189 192 194 198 201 198 193 189 191 193 206 217 220 221 235
98 149 186 202 226 252 255 257 173 134 285 277 243 261 286 88 319 279 292 301 280 278 276 275 275 257 237 215 184 190 198 199 206 204 198 190 187 190 197 207 212 212 218 233
168 196 207 220 237 261 260 248 143 219 256 304 325 280 267 208 231 259 295 296 287 285 282 279 270 254 242 202 185 201 206 212 210 195 186 185 188 192 196 198 204 208 218 228
187 190 206 195 221 255 238 160 199 233 297 316 315 308 286 263 268 277 283 283 285 287 285 279 267 261 244 195 195 211 219 215 187 180 183 186 187 188 190 193 201 205 211 224
210 205 205 204 226 256 198 216 250 292 291 291 295 297 295 284 281 283 282 282 284 280 279 273 260 264 250 207 204 221 223 192 178 182 187 186 184 187 186 188 195 199 205 216
241 226 233 252 257 267 272 261 263 262 264 275 282 287 289 283 283 286 286 285 284 282 280 276 268 264 260 226 218 227 212 179 182 189 189 185 184 186 189 189 192 197 202 209
236 254 260 265 271 281 261 262 278 294 297 295 295 292 287 284 285 284 286 287 286 285 284 279 268 265 266 248 229 222 197 182 188 190 189 188 188 186 189 194 197 198 203 200
227 242 256 267 270 270 279 281 287 290 292 297 300 299 296 287 284 290 291 291 291 292 292 290 280 273 273 260 239 216 195 189 188 190 189 187 186 185 186 189 197 215 211 223